Location: Berg
(48.4333°N, 13.9167°E)
Time: 23:02:29
(UTC+00:00)

Cosmos 2142 Rocket - Pass Details

Date: 18 September 2020
Orbit: 952 x 1005 km, 82.9° (Epoch: 31 October)

Event Time Altitude Azimuth Distance (km) Brightness Sun altitude
Exits shadow 20:21:20 69° 220° (SW) 1,051 4.5 -29.7°
Maximum altitude 20:22:04 79° 279° (W) 1,006 4.5 -29.8°
Drops below altitude 10° 20:28:21 10° 7° (N) 2,730 7.2 -30.5°
Sets 20:30:52 0° 9° (N) 3,674 8.0 -30.8°
